Location: Donzy-le-Pr�
(47.3659°N, 3.1107°E)
Time: 11:56:32
(UTC+00:00)

Cosmos 1241 Rocket - Pass Details

Date: 03 March 2021
Orbit: 929 x 1019 km, 65.8° (Epoch: 22 April)

Event Time Altitude Azimuth Distance (km) Brightness Sun altitude
Rises 19:24:16 0° 324° (NW) 3,768 8.3 -19.1°
Reaches altitude 10° 19:26:54 10° 325° (NW) 2,811 7.5 -19.5°
Maximum altitude 19:33:32 81° 53° (NE) 1,025 4.5 -20.6°
Enters shadow 19:36:50 32° 138° (SE) 1,654 5.3 -21.2°
